When you browse on this site, cookies collect data to enhance your experience and personalize the content and advertising you see.
Visit our Privacy Policy to learn more. By continuing to use the site, you agree to this use of cookies and data.
  • In Portugal
  • List of Countries
  • For 7 days
  • Water Temperature
  • Satellite Maps
  • Weather Map
  • Weather Widgets
  • user-avatar
    Login

    Hourly Weather Oran

    Today, 15 December, Saturday

    Time Temperature Precipitation Wind Pressure Humidity
    00:00 +11°C° 0 mm 4 mps 759 mmHg 79%
    01:00 +11°C° 0 mm 4 mps 759 mmHg 80%
    02:00 +10°C° 0 mm 5 mps 759 mmHg 81%
    03:00 +10°C° 0 mm 5 mps 759 mmHg 82%
    04:00 +10°C° 0 mm 5 mps 759 mmHg 81%
    05:00 +10°C° 0 mm 6 mps 759 mmHg 80%
    06:00 +9°C° 0 mm 6 mps 759 mmHg 80%
    07:00 +10°C° 0 mm 6 mps 760 mmHg 74%
    08:00 +11°C° 0 mm 6 mps 760 mmHg 68%
    09:00 +13°C° 0 mm 6 mps 760 mmHg 62%
    10:00 +14°C° 0 mm 6 mps 760 mmHg 55%
    11:00 +15°C° 0 mm 6 mps 760 mmHg 48%
    12:00 +16°C° 0 mm 5 mps 760 mmHg 41%
    13:00 +17°C° 0 mm 5 mps 759 mmHg 39%
    14:00 +17°C° 0 mm 5 mps 759 mmHg 37%
    15:00 +19°C° 0 mm 5 mps 759 mmHg 35%
    16:00 +17°C° 0 mm 4 mps 759 mmHg 41%
    17:00 +16°C° 0 mm 3 mps 759 mmHg 46%
    18:00 +14°C° 0 mm 3 mps 759 mmHg 51%
    19:00 +14°C° 0 mm 3 mps 759 mmHg 48%
    20:00 +15°C° 0 mm 2 mps 759 mmHg 46%
    21:00 +14°C° 0 mm 2 mps 759 mmHg 43%
    22:00 +14°C° 0 mm 2 mps 759 mmHg 41%
    23:00 +14°C° 0 mm 2 mps 758 mmHg 40%

    Tomorrow, 16 December, Sunday

    Time Temperature Precipitation Wind Pressure Humidity
    00:00 +13°C° 0 mm 3 mps 758 mmHg 38%
    01:00 +13°C° 0 mm 3 mps 758 mmHg 38%
    02:00 +13°C° 0 mm 3 mps 757 mmHg 37%
    03:00 +13°C° 0 mm 3 mps 757 mmHg 37%
    04:00 +13°C° 0 mm 3 mps 757 mmHg 38%
    05:00 +13°C° 0 mm 3 mps 757 mmHg 38%
    06:00 +13°C° 0 mm 3 mps 757 mmHg 38%
    07:00 +14°C° 0 mm 3 mps 757 mmHg 37%
    08:00 +17°C° 0 mm 3 mps 757 mmHg 36%
    09:00 +18°C° 0 mm 3 mps 757 mmHg 35%
    10:00 +20°C° 0 mm 4 mps 757 mmHg 32%
    11:00 +21°C° 0 mm 4 mps 757 mmHg 29%
    12:00 +23°C° 0 mm 5 mps 756 mmHg 26%
    13:00 +23°C° 0 mm 5 mps 756 mmHg 28%
    14:00 +23°C° 0 mm 6 mps 756 mmHg 31%
    15:00 +22°C° 0 mm 7 mps 756 mmHg 33%
    16:00 +21°C° 0 mm 7 mps 757 mmHg 40%
    17:00 +18°C° 0 mm 7 mps 757 mmHg 47%
    18:00 +17°C° 0 mm 7 mps 757 mmHg 55%
    19:00 +16°C° 0 mm 6 mps 758 mmHg 54%
    20:00 +16°C° 0 mm 6 mps 758 mmHg 53%
    21:00 +16°C° 0 mm 6 mps 759 mmHg 52%
    22:00 +16°C° 0 mm 6 mps 759 mmHg 53%
    23:00 +16°C° 0 mm 5 mps 759 mmHg 53%

    Day after tomorrow, 17 December, Monday

    Time Temperature Precipitation Wind Pressure Humidity
    00:00 +15°C° 0 mm 5 mps 758 mmHg 53%
    01:00 +15°C° 0 mm 5 mps 759 mmHg 56%
    02:00 +15°C° 0 mm 4 mps 759 mmHg 59%
    03:00 +15°C° 0 mm 4 mps 759 mmHg 62%
    04:00 +14°C° 0 mm 4 mps 759 mmHg 66%
    05:00 +14°C° 0 mm 3 mps 759 mmHg 69%
    06:00 +14°C° 0 mm 3 mps 759 mmHg 73%
    07:00 +16°C° 0 mm 2 mps 760 mmHg 70%
    08:00 +17°C° 0 mm 2 mps 760 mmHg 68%
    09:00 +19°C° 0 mm 1 mps 760 mmHg 66%
    10:00 +18°C° 0 mm 2 mps 760 mmHg 65%
    11:00 +19°C° 0 mm 2 mps 760 mmHg 64%
    12:00 +20°C° 0 mm 2 mps 760 mmHg 62%
    13:00 +20°C° 0 mm 2 mps 759 mmHg 62%
    14:00 +20°C° 0 mm 3 mps 759 mmHg 62%
    15:00 +20°C° 0 mm 3 mps 759 mmHg 62%
    16:00 +19°C° 0 mm 4 mps 759 mmHg 66%
    17:00 +18°C° 0 mm 4 mps 759 mmHg 71%
    18:00 +17°C° 0 mm 4 mps 760 mmHg 76%
    19:00 +17°C° 0 mm 3 mps 760 mmHg 77%
    20:00 +16°C° 0 mm 3 mps 760 mmHg 79%
    21:00 +16°C° 0 mm 3 mps 760 mmHg 80%
    22:00 +14°C° 0 mm 3 mps 760 mmHg 80%
    23:00 +14°C° 0 mm 3 mps 760 mmHg 79%

    18 December, Tuesday

    Time Temperature Precipitation Wind Pressure Humidity
    00:00 +14°C° 0 mm 3 mps 759 mmHg 79%
    01:00 +14°C° 0 mm 3 mps 759 mmHg 77%
    02:00 +14°C° 0 mm 3 mps 759 mmHg 75%
    03:00 +14°C° 0 mm 3 mps 758 mmHg 73%
    04:00 +13°C° 0 mm 3 mps 758 mmHg 73%
    05:00 +13°C° 0 mm 4 mps 758 mmHg 72%
    06:00 +13°C° 0 mm 4 mps 758 mmHg 72%
    07:00 +14°C° 0 mm 3 mps 758 mmHg 65%
    08:00 +16°C° 0 mm 3 mps 758 mmHg 59%
    09:00 +17°C° 0 mm 3 mps 758 mmHg 52%
    10:00 +19°C° 0 mm 3 mps 758 mmHg 45%
    11:00 +21°C° 0 mm 2 mps 758 mmHg 38%
    12:00 +23°C° 0 mm 2 mps 757 mmHg 31%
    13:00 +23°C° 0 mm 2 mps 757 mmHg 32%
    14:00 +23°C° 0 mm 2 mps 756 mmHg 33%
    15:00 +23°C° 0 mm 2 mps 756 mmHg 33%
    16:00 +20°C° 0 mm 2 mps 756 mmHg 42%
    17:00 +19°C° 0 mm 1 mps 756 mmHg 51%
    18:00 +16°C° 0 mm 1 mps 756 mmHg 60%
    19:00 +16°C° 0 mm 1 mps 756 mmHg 61%
    20:00 +16°C° 0 mm 2 mps 756 mmHg 61%
    21:00 +15°C° 0 mm 2 mps 756 mmHg 62%
    22:00 +15°C° 0 mm 2 mps 756 mmHg 63%
    23:00 +15°C° 0 mm 2 mps 756 mmHg 64%

    19 December, Wednesday

    Time Temperature Precipitation Wind Pressure Humidity
    00:00 +15°C° 0 mm 2 mps 756 mmHg 65%
    01:00 +14°C° 0 mm 3 mps 756 mmHg 62%
    02:00 +14°C° 0 mm 3 mps 756 mmHg 60%
    03:00 +14°C° 0 mm 3 mps 756 mmHg 57%
    04:00 +14°C° 0 mm 3 mps 756 mmHg 56%
    05:00 +14°C° 0 mm 3 mps 756 mmHg 54%
    06:00 +14°C° 0 mm 3 mps 756 mmHg 53%
    07:00 +15°C° 0 mm 4 mps 756 mmHg 53%
    08:00 +15°C° 0 mm 4 mps 756 mmHg 54%
    09:00 +17°C° 0 mm 4 mps 757 mmHg 54%
    10:00 +18°C° 0 mm 4 mps 756 mmHg 51%
    11:00 +20°C° 0 mm 5 mps 756 mmHg 47%
    12:00 +21°C° 0 mm 5 mps 756 mmHg 43%
    13:00 +20°C° 0 mm 5 mps 756 mmHg 48%
    14:00 +20°C° 0 mm 6 mps 756 mmHg 53%
    15:00 +19°C° 0 mm 6 mps 756 mmHg 58%
    16:00 +17°C° 0 mm 5 mps 756 mmHg 63%
    17:00 +16°C° 0 mm 5 mps 757 mmHg 69%
    18:00 +15°C° 0 mm 4 mps 757 mmHg 75%
    19:00 +15°C° 0 mm 4 mps 757 mmHg 76%
    20:00 +14°C° 0 mm 4 mps 758 mmHg 77%
    21:00 +14°C° 0 mm 3 mps 758 mmHg 79%
    22:00 +14°C° 0 mm 3 mps 759 mmHg 79%
    23:00 +13°C° 0 mm 3 mps 759 mmHg 79%

    20 December, Thursday

    Time Temperature Precipitation Wind Pressure Humidity
    00:00 +13°C° 0 mm 3 mps 759 mmHg 78%
    01:00 +12°C° 0 mm 3 mps 759 mmHg 78%
    02:00 +12°C° 0 mm 3 mps 759 mmHg 78%
    03:00 +12°C° 0 mm 3 mps 759 mmHg 77%
    04:00 +11°C° 0 mm 3 mps 759 mmHg 77%
    05:00 +11°C° 0 mm 3 mps 759 mmHg 77%
    06:00 +12°C° 0 mm 2 mps 759 mmHg 76%
    07:00 +12°C° 0 mm 3 mps 760 mmHg 71%
    08:00 +13°C° 0 mm 3 mps 760 mmHg 67%
    09:00 +14°C° 0 mm 3 mps 760 mmHg 62%
    10:00 +14°C° 0 mm 3 mps 760 mmHg 59%
    11:00 +16°C° 0 mm 3 mps 760 mmHg 56%
    12:00 +17°C° 0 mm 3 mps 760 mmHg 53%
    13:00 +17°C° 0 mm 3 mps 760 mmHg 53%
    14:00 +17°C° 0 mm 3 mps 759 mmHg 53%
    15:00 +17°C° 0 mm 3 mps 759 mmHg 53%
    16:00 +16°C° 0 mm 3 mps 759 mmHg 58%
    17:00 +14°C° 0 mm 3 mps 760 mmHg 62%
    18:00 +13°C° 0 mm 3 mps 760 mmHg 67%
    19:00 +13°C° 0 mm 2 mps 760 mmHg 70%
    20:00 +13°C° 0 mm 2 mps 761 mmHg 72%
    21:00 +12°C° 0 mm 2 mps 761 mmHg 75%
    22:00 +12°C° 0 mm 2 mps 761 mmHg 76%
    23:00 +12°C° 0 mm 1 mps 761 mmHg 77%
    Show more